TimeMST,TemperatureF,Dew PointF,Humidity,Sea Level PressureIn,VisibilityMPH,Wind Direction,Wind SpeedMPH,Gust SpeedMPH,PrecipitationIn,Events,Conditions,WindDirDegrees,DateUTC
12:15 AM,24.8,24.8,100,30.32,3.0,West,4.6,-,N/A,,Overcast,280,2013-02-01 07:15:00
12:35 AM,21.2,17.6,86,30.32,3.0,SSW,4.6,-,N/A,,Mostly Cloudy,210,2013-02-01 07:35:00
1:15 AM,19.4,19.4,100,30.32,6.0,Calm,Calm,-,N/A,,Scattered Clouds,0,2013-02-01 08:15:00
1:35 AM,19.4,19.4,100,30.32,5.0,Calm,Calm,-,N/A,,Partly Cloudy,0,2013-02-01 08:35:00
1:55 AM,17.6,17.6,100,30.32,2.0,Calm,Calm,-,N/A,,Scattered Clouds,0,2013-02-01 08:55:00
2:15 AM,17.6,15.8,93,30.32,3.0,SSW,4.6,-,N/A,,Mostly Cloudy,210,2013-02-01 09:15:00
2:35 AM,17.6,15.8,93,30.32,6.0,Calm,Calm,-,N/A,,Partly Cloudy,0,2013-02-01 09:35:00
2:55 AM,15.8,12.2,86,30.32,7.0,Calm,Calm,-,N/A,,Clear,0,2013-02-01 09:55:00
3:15 AM,15.8,14.0,93,30.32,5.0,Calm,Calm,-,N/A,,Clear,0,2013-02-01 10:15:00
3:35 AM,17.6,15.8,93,30.32,3.0,Calm,Calm,-,N/A,,Clear,0,2013-02-01 10:35:00
3:55 AM,10.4,3.2,73,30.32,0.2,West,3.5,-,N/A,,Unknown,280,2013-02-01 10:55:00
4:15 AM,12.2,8.6,85,30.31,0.2,West,3.5,-,N/A,,Unknown,270,2013-02-01 11:15:00
4:35 AM,10.4,10.4,100,30.31,0.2,Calm,Calm,-,N/A,,Unknown,0,2013-02-01 11:35:00
4:55 AM,10.4,6.8,85,30.31,7.0,Calm,Calm,-,N/A,,Clear,0,2013-02-01 11:55:00
5:15 AM,10.4,6.8,85,30.30,7.0,Calm,Calm,-,N/A,,Clear,0,2013-02-01 12:15:00
5:35 AM,10.4,8.6,92,30.30,5.0,Calm,Calm,-,N/A,,Clear,0,2013-02-01 12:35:00
5:55 AM,10.4,8.6,92,30.31,10.0,Calm,Calm,-,N/A,,Clear,0,2013-02-01 12:55:00
6:15 AM,8.6,3.2,79,30.31,0.2,Calm,Calm,-,N/A,,Mostly Cloudy,0,2013-02-01 13:15:00
6:35 AM,8.6,6.8,92,30.31,0.2,Calm,Calm,-,N/A,,Unknown,0,2013-02-01 13:35:00
6:50 AM,10.4,10.4,100,30.31,1.0,Calm,Calm,-,N/A,Fog,Patches of Fog,0,2013-02-01 13:50:00
7:14 AM,10.4,8.6,92,30.31,1.5,Calm,Calm,-,N/A,Fog,Fog,0,2013-02-01 14:14:00
7:50 AM,12.2,10.4,92,30.32,0.2,Calm,Calm,-,N/A,Fog,Fog,0,2013-02-01 14:50:00
8:50 AM,14.0,12.2,93,30.33,0.1,Calm,Calm,-,N/A,Fog,Light Freezing Fog,0,2013-02-01 15:50:00
9:49 AM,15.8,15.8,100,30.35,0.2,Calm,Calm,-,N/A,Fog,Light Freezing Fog,0,2013-02-01 16:49:00
11:01 AM,19.4,19.4,100,30.37,3.0,Calm,Calm,-,N/A,,Partly Cloudy,0,2013-02-01 18:01:00
11:47 AM,23.0,21.2,93,30.38,10.0,Calm,Calm,-,N/A,,Partly Cloudy,0,2013-02-01 18:47:00
12:47 PM,26.6,24.8,93,30.37,10.0,Calm,Calm,-,N/A,,Partly Cloudy,0,2013-02-01 19:47:00
2:54 PM,28.4,24.8,86,30.33,12.0,Calm,Calm,-,N/A,,Partly Cloudy,0,2013-02-01 21:54:00
2:59 PM,28.4,24.8,86,30.35,12.0,Calm,Calm,-,N/A,,Partly Cloudy,0,2013-02-01 21:59:00
3:55 PM,30.2,24.8,80,30.35,15.0,Calm,Calm,-,N/A,,Partly Cloudy,0,2013-02-01 22:55:00
4:55 PM,32.0,23.0,69,30.35,15.0,Calm,Calm,-,N/A,,Partly Cloudy,0,2013-02-01 23:55:00
5:50 PM,28.4,21.2,74,30.35,15.0,Calm,Calm,-,N/A,,Partly Cloudy,0,2013-02-02 00:50:00
6:50 PM,21.2,17.6,86,30.37,15.0,Calm,Calm,-,N/A,,Partly Cloudy,0,2013-02-02 01:50:00
7:50 PM,21.2,21.2,100,30.39,15.0,Calm,Calm,-,N/A,,Clear,0,2013-02-02 02:50:00
8:50 PM,19.4,19.4,100,30.41,15.0,Calm,Calm,-,N/A,,Clear,0,2013-02-02 03:50:00
8:55 PM,19.4,15.8,86,30.41,4.0,Calm,Calm,-,N/A,,Clear,0,2013-02-02 03:55:00
9:15 PM,17.6,15.8,93,30.41,9.0,Calm,Calm,-,N/A,,Clear,0,2013-02-02 04:15:00
9:35 PM,15.8,12.2,86,30.42,1.2,Calm,Calm,-,N/A,,Clear,0,2013-02-02 04:35:00
9:55 PM,17.6,17.6,100,30.43,4.0,Calm,Calm,-,N/A,,Clear,0,2013-02-02 04:55:00
10:15 PM,10.4,5.0,79,30.43,1.0,Calm,Calm,-,N/A,,Clear,0,2013-02-02 05:15:00
10:35 PM,12.2,12.2,100,30.43,1.0,Calm,Calm,-,N/A,,Clear,0,2013-02-02 05:35:00
10:55 PM,12.2,12.2,100,30.43,2.0,Calm,Calm,-,N/A,,Clear,0,2013-02-02 05:55:00
11:15 PM,12.2,10.4,92,30.44,3.0,NNW,3.5,-,N/A,,Clear,330,2013-02-02 06:15:00
11:35 PM,6.8,3.2,85,30.45,2.0,West,3.5,-,N/A,,Clear,270,2013-02-02 06:35:00
11:55 PM,8.6,8.6,100,30.45,0.2,WNW,3.5,-,N/A,,Unknown,290,2013-02-02 06:55:00